Wind_Speed
28 28 30 33 33 34 28 6 4 29 18 7 3 3 5 8 11 8 6 5 4 4 4 4 5 2 1 9 8 6 5 3 3 6 6 10 14 5 5 3 1 3 3 5
27 27 29 32 31 29 13 2 2 14 20 6 5 5 8 5 10 8 7 7 5 5 4 4 4 5 4 12 7 4 3 1 3 3 3 8 7 8 7 1 3 4 0 5
26 26 28 29 29 26 8 3 4 4 4 2 2 4 7 11 6 3 7 4 6 6 4 3 5 4 6 8 6 9 5 2 2 2 5 4 5 14 10 5 3 3 4 5
24 26 28 27 25 21 5 3 2 2 5 9 6 4 7 12 11 5 7 5 12 9 3 5 5 4 5 5 12 6 4 2 4 4 8 18 17 15 13 8 8 3 10 8
26 25 26 25 23 15 11 3 3 3 4 3 5 7 7 11 10 3 6 6 12 7 3 5 5 5 5 5 6 6 5 1 4 3 4 14 15 19 15 16 16 10 11 3
25 24 24 23 21 15 5 5 3 4 6 5 4 5 7 12 10 4 7 8 5 7 9 11 3 10 11 10 6 6 3 2 2 2 7 6 8 19 14 12 12 7 8 10
22 23 22 22 19 17 7 5 3 4 3 6 6 9 11 16 12 8 8 5 4 3 9 9 8 13 15 17 16 13 5 3 2 2 2 5 2 13 10 16 9 13 16 17
21 20 20 19 16 15 14 11 4 3 2 7 11 15 12 11 11 6 4 5 4 9 2 2 1 2 1 7 12 17 9 2 3 2 3 4 12 14 10 11 7 15 17 18
19 18 18 17 14 12 12 15 7 5 4 7 8 6 6 4 6 6 4 7 10 4 1 2 4 6 5 6 10 11 12 6 4 3 4 3 10 14 19 2 4 20 20 20
17 17 16 15 15 14 13 11 7 7 4 4 4 4 7 4 4 2 5 8 8 6 3 4 4 3 3 4 6 8 7 5 8 7 4 4 14 15 13 6 8 23 20 19
15 14 12 10 17 15 12 12 10 5 3 5 4 6 5 5 1 1 5 4 5 4 5 3 3 3 2 3 3 5 6 3 5 5 5 4 17 6 6 8 12 16 18 16
13 11 9 8 11 16 10 10 14 15 11 2 10 16 15 5 8 1 3 1 2 1 3 3 3 3 3 1 3 6 6 4 1 3 3 6 5 7 6 11 12 13 18 18
12 7 7 7 9 15 10 11 7 3 3 5 11 10 22 17 9 2 1 2 3 3 2 3 2 6 2 3 4 3 7 9 3 3 5 15 6 9 12 14 12 15 14 15
10 5 5 7 8 12 12 7 4 3 5 3 4 18 25 24 23 17 6 1 6 4 3 3 3 3 3 1 2 2 2 5 6 3 4 11 2 11 15 17 16 17 20 17
6 4 3 4 3 5 9 17 18 9 2 2 3 6 22 21 26 28 27 24 6 4 4 4 1 2 3 1 2 3 3 2 2 3 4 5 10 11 16 15 14 15 15 18
5 6 7 6 4 1 1 3 10 12 4 3 2 2 9 23 17 19 21 15 6 3 3 1 1 1 3 3 2 2 2 2 4 3 7 10 11 12 16 14 15 21 18 20
8 12 16 17 16 15 10 2 11 7 3 3 3 3 8 18 7 7 6 10 2 3 1 3 1 3 3 3 1 5 6 5 6 3 7 4 3 8 20 19 20 20 18 19
9 8 7 6 6 6 7 15 14 4 8 7 3 3 3 12 3 3 8 3 3 5 2 2 2 2 2 2 5 5 5 7 4 6 8 9 14 15 13 17 18 14 12 20
8 5 2 1 4 4 3 5 7 17 10 3 3 2 3 9 2 2 3 2 3 2 2 1 2 2 1 5 4 4 4 2 7 9 7 7 5 8 8 12 13 11 13 19
4 1 1 3 3 4 2 2 6 10 10 4 2 1 2 2 3 3 3 2 1 2 3 1 3 2 4 5 6 5 7 6 8 7 11 12 12 11 11 10 14 14 15 17
1 2 2 1 4 2 6 3 4 3 4 3 2 1 2 2 2 2 2 1 1 2 3 2 2 3 4 4 4 8 10 10 11 10 13 15 13 11 11 13 15 15 15 16
4 7 5 4 7 3 6 2 3 4 1 3 1 2 2 3 2 2 3 2 3 2 2 3 2 3 5 4 5 7 12 11 12 13 13 14 14 16 15 15 15 14 16 17
2 3 5 4 4 9 5 3 4 3 2 2 3 3 1 3 2 2 3 4 3 1 4 3 4 3 4 6 4 7 14 13 12 14 13 14 14 14 14 15 16 18 17 17
4 4 5 3 4 0 3 4 3 3 2 2 1 2 1 2 3 0 3 2 2 3 3 4 3 5 5 4 7 4 7 13 13 15 15 15 14 15 17 16 16 17 18 17
3 3 2 1 2 1 2 1 2 2 1 1 2 1 1 2 2 2 2 5 3 4 4 3 4 5 3 5 5 8 10 13 14 17 15 17 18 17 19 20 18 17 16 15
4 4 3 1 3 3 2 1 2 1 0 1 1 1 3 2 1 3 3 4 4 4 3 3 2 3 4 5 11 13 16 16 18 19 18 17 17 17 19 20 19 16 15 15
4 2 1 2 2 3 2 3 2 1 2 0 2 3 4 1 3 3 3 4 3 4 4 3 5 6 6 13 15 16 16 17 18 19 19 19 20 19 18 16 18 15 14 16
Wind_Direction
7 4 0 357 358 354 357 3 47 358 17 51 27 27 342 6 356 1 1 1 36 349 335 343 14 81 28 4 341 346 34 15 351 48 67 63 58 32 18 307 21 18 97 124
5 0 359 358 358 358 347 44 331 3 27 42 5 332 5 12 10 12 1 359 9 358 335 352 34 342 18 2 344 339 313 119 317 162 204 50 38 35 22 280 272 46 52 116
4 3 1 0 360 357 5 53 18 345 28 78 39 0 3 5 0 26 351 0 355 337 333 356 315 339 353 338 323 1 5 23 110 343 42 54 40 27 15 27 6 353 60 27
6 4 2 2 3 8 34 29 47 354 5 4 1 37 351 6 5 347 4 360 4 351 307 334 358 354 329 341 2 22 54 67 8 19 75 84 57 26 11 31 15 347 24 24
7 6 6 6 9 13 54 79 31 8 339 348 14 4 346 356 347 299 331 353 343 336 9 355 317 333 6 35 339 21 353 356 25 332 355 101 65 27 15 18 16 357 351 32
5 10 11 11 15 26 65 22 57 98 333 337 34 12 347 343 345 298 347 333 343 330 9 320 2 95 76 55 34 345 39 78 42 354 130 142 32 11 8 360 354 0 35 341
8 12 11 17 20 41 78 30 37 73 16 9 357 353 4 340 342 313 311 1 343 317 0 78 72 88 78 57 44 32 358 347 131 234 61 54 160 26 352 342 103 36 2 345
10 13 12 16 23 38 51 37 46 98 67 3 360 351 355 329 335 335 303 336 256 306 233 105 234 305 46 45 39 22 24 12 49 87 56 125 20 344 338 343 307 17 354 337
11 13 15 19 30 31 50 43 37 85 109 1 338 318 324 328 331 328 285 318 320 335 204 79 38 30 356 354 354 2 9 50 84 27 70 70 351 328 321 283 253 354 343 332
11 13 18 29 30 22 56 53 41 76 100 298 344 352 327 308 305 276 303 340 340 359 36 55 34 42 29 26 9 344 352 357 33 21 87 105 358 338 332 45 314 328 327 323
6 11 21 36 32 33 76 55 59 87 118 297 320 333 325 317 326 308 298 9 353 357 46 71 48 56 11 77 342 346 24 17 9 14 44 4 2 348 38 315 310 314 321 321
2 8 24 41 41 40 91 85 79 78 76 242 7 14 13 312 263 222 314 178 302 333 81 42 78 48 45 177 22 348 41 354 329 48 69 3 339 347 329 330 325 321 324 327
359 15 38 57 53 45 113 114 49 64 72 359 24 5 16 34 34 239 49 346 359 18 142 135 140 76 65 42 6 347 345 16 48 357 5 343 315 347 345 340 332 322 322 330
1 47 61 90 81 61 82 80 36 54 94 94 298 27 29 43 55 61 55 28 47 72 56 75 83 96 49 27 171 64 318 338 331 300 349 330 237 342 339 336 331 331 335 339
8 48 60 120 132 90 69 65 52 43 102 160 284 342 23 37 50 59 61 58 51 28 42 53 45 68 88 344 86 35 352 327 20 281 336 302 288 315 328 333 331 332 338 340
55 50 66 119 145 90 340 38 38 18 39 91 35 311 5 6 18 35 41 33 52 73 95 180 2 247 91 82 70 248 289 278 201 273 301 285 278 309 320 324 328 333 341 341
107 89 88 84 81 80 67 69 306 2 8 69 25 350 356 352 0 7 12 33 58 89 125 48 96 1 54 87 84 299 320 305 299 275 323 319 319 309 314 316 324 335 341 345
138 117 91 89 67 69 46 30 31 52 92 60 68 308 348 11 334 347 9 12 21 16 153 8 52 353 58 69 248 279 276 299 303 301 305 265 288 301 309 328 334 342 347 349
138 147 92 59 30 41 13 350 8 51 67 101 63 55 293 349 343 328 343 44 38 287 67 12 73 326 61 232 265 299 281 259 279 305 297 301 300 309 321 337 341 341 345 347
154 303 74 18 5 351 341 10 22 22 5 28 73 39 283 47 351 314 344 18 51 46 277 6 68 254 244 238 229 248 282 281 310 324 331 332 331 329 331 334 336 338 337 339
255 55 99 42 9 34 37 40 57 337 21 10 285 180 290 343 34 293 70 236 344 62 280 97 333 300 251 262 274 286 300 298 292 293 295 308 306 312 323 326 328 330 333 337
96 114 93 39 32 34 75 354 349 50 257 320 8 289 234 297 341 53 342 103 31 239 310 71 311 255 257 287 283 298 314 310 298 312 305 308 307 311 313 313 318 322 325 333
68 60 51 37 323 37 75 339 321 359 278 278 334 316 333 322 56 44 48 57 244 330 41 228 229 263 277 267 274 289 316 317 308 309 307 303 303 307 310 310 316 324 325 332
65 68 27 79 339 247 180 186 203 248 174 302 217 278 326 311 6 185 60 237 58 34 19 246 256 237 259 279 285 281 294 308 304 308 315 310 307 308 317 317 315 319 318 322
82 65 78 76 207 244 233 223 330 255 178 56 346 314 8 326 26 50 39 13 312 202 233 237 238 246 257 281 281 284 290 301 304 312 309 309 314 311 308 320 317 314 312 313
75 57 77 303 54 307 337 209 263 242 116 161 52 22 27 324 76 32 221 112 234 256 224 237 242 251 253 269 286 294 301 303 308 312 312 310 308 304 307 311 311 310 309 308
55 331 356 114 126 197 224 181 235 170 71 26 88 37 234 344 18 307 190 207 225 226 248 239 240 258 273 290 295 297 301 305 310 312 312 308 313 311 309 303 315 309 302 305
Height
843 837 831 825 818 810 800 800 805 796 785 790 804 805 802 792 791 789 787 785 784 790 786 785 777 780 774 771 767 767 762 772 767 762 766 766 767 770 768 748 745 748 744 765
845 839 833 827 820 814 808 812 812 802 796 811 812 808 802 797 797 796 792 791 789 791 792 793 785 782 774 774 771 771 764 779 774 761 766 767 772 773 776 778 773 780 751 766
846 841 835 829 823 817 812 815 821 815 813 820 824 823 814 808 801 799 798 796 793 795 793 788 795 786 779 777 775 765 767 768 769 779 780 778 782 788 781 782 781 794 778 783
848 843 837 832 826 820 815 824 831 830 826 821 827 827 821 815 812 805 802 798 800 799 802 795 794 788 787 781 779 780 783 797 782 778 780 794 806 806 797 790 797 789 798 794
850 845 840 835 829 824 823 832 835 833 837 832 832 831 827 820 816 813 809 807 804 802 800 803 799 797 796 795 792 791 791 803 789 791 779 791 822 826 812 803 810 805 805 800
852 848 843 838 833 828 829 831 832 837 838 837 840 832 831 825 821 812 811 811 809 806 808 806 803 804 806 809 808 805 803 811 801 805 792 796 825 840 826 830 830 824 830 838
854 850 847 843 838 835 834 834 834 845 846 838 834 834 832 831 825 823 815 813 813 807 814 810 807 804 805 807 814 813 813 808 799 817 797 858 843 839 838 841 833 841 838 833
857 853 850 846 842 840 837 837 837 846 853 846 841 839 838 831 827 824 820 815 814 810 810 814 813 804 805 814 818 819 823 827 829 806 835 840 843 845 849 848 838 838 840 836
860 856 853 849 846 843 841 841 840 840 858 857 852 848 845 842 838 830 820 814 810 808 803 813 821 830 832 833 831 825 823 834 841 827 837 847 865 850 841 837 836 839 840 835
861 858 855 853 849 846 844 844 843 843 861 857 853 852 846 843 843 848 833 823 815 811 816 820 837 852 848 871 862 852 845 850 849 837 839 856 863 853 838 857 855 842 840 833
862 860 857 855 852 849 848 849 848 848 860 858 853 850 848 844 845 849 834 832 830 826 835 835 845 854 871 869 872 869 868 875 855 846 857 878 865 857 864 867 858 850 840 832
863 861 859 857 855 853 852 852 853 852 854 861 856 852 850 845 842 845 839 839 836 833 843 853 853 858 871 890 883 871 875 878 874 876 868 874 871 870 868 865 859 848 841 831
864 862 860 859 858 856 855 855 856 856 857 859 854 852 851 845 842 841 844 839 837 839 840 854 873 881 873 889 885 884 877 874 882 876 871 872 870 868 867 863 857 849 841 833
864 862 861 860 860 859 858 858 857 858 861 872 869 860 853 851 845 841 841 841 839 840 843 861 873 872 876 891 892 889 890 884 885 881 877 872 865 868 865 860 855 848 839 832
864 863 862 862 862 862 861 860 860 859 863 870 868 862 859 856 853 848 846 844 846 853 860 872 883 883 883 898 890 893 893 895 897 891 888 885 875 869 865 862 856 849 841 831
865 863 862 862 863 862 862 861 862 862 861 867 876 866 864 859 857 854 853 852 854 862 872 888 883 879 885 900 896 895 894 893 892 892 886 882 876 871 866 861 855 849 843 836
867 866 865 865 865 863 864 872 867 864 863 868 879 874 869 866 863 860 859 858 863 867 882 885 886 883 883 902 908 894 892 890 888 885 883 879 876 873 866 861 855 850 845 839
868 868 868 868 869 868 868 869 866 865 865 871 899 890 877 874 875 873 866 870 869 874 886 886 889 886 892 907 900 898 895 890 886 884 882 880 875 870 866 861 854 849 843 837
869 869 869 869 869 871 873 872 871 868 871 893 900 905 900 880 877 876 873 875 887 882 891 889 885 903 911 903 899 897 893 892 887 881 878 876 873 868 864 860 856 851 845 840
870 870 869 874 873 873 874 872 873 876 883 889 902 899 903 893 885 881 880 883 894 905 896 886 899 913 900 895 892 890 888 886 883 881 875 872 869 866 862 859 855 852 848 844
870 870 873 874 873 873 877 891 895 902 910 905 906 906 905 891 898 891 891 900 896 911 895 899 908 910 901 889 889 885 884 882 881 879 876 872 869 865 861 857 854 851 848 844
871 871 873 874 878 884 894 920 908 912 915 908 908 904 901 896 892 894 898 902 905 904 899 907 915 902 893 889 885 882 880 879 877 875 872 869 866 863 860 856 853 850 846 843
872 873 880 887 899 902 919 926 921 924 918 911 907 908 902 896 895 906 911 909 913 907 922 917 907 899 889 885 882 879 877 875 873 871 868 865 862 860 857 854 851 848 845 841
879 893 902 912 925 921 921 921 920 909 909 907 909 909 906 898 901 911 906 913 911 929 927 912 905 892 885 881 879 877 874 872 869 866 863 861 858 855 852 850 847 845 842 839
892 895 913 917 908 912 913 913 912 906 905 907 907 906 907 905 909 905 915 917 925 915 911 905 891 883 882 878 875 873 871 869 866 863 860 857 854 851 848 845 843 841 838 836
894 903 910 909 913 916 915 914 911 905 905 904 907 916 919 918 917 915 926 928 926 906 903 887 882 878 876 874 871 869 867 864 862 859 856 853 850 848 845 842 839 837 835 832
903 909 901 905 910 910 908 905 904 904 907 912 920 920 917 923 931 922 916 918 899 889 882 877 875 873 871 869 867 865 862 860 857 854 851 848 846 843 840 837 835 834 832 830